Location: Lake Lucerne
(45.5315°N, 88.8489°W)
Time: 20:51:27
(UTC-05:00)

ARIANE 6 FM1 Upper Stage - Pass Details

Date: 27 September 2024
Orbit: 563 x 594 km, 62.0° (Epoch: 09 October)

Event Time Altitude Azimuth Distance (km) Brightness Sun altitude
Rises 20:10:51 0° 256° (WSW) 2,783 7.3 -16.3°
Reaches altitude 10° 20:13:24 10° 270° (W) 1,894 6.6 -16.7°
Maximum altitude 20:16:56 25° 326° (NW) 1,212 4.9 -17.3°
Drops below altitude 10° 20:20:31 10° 22° (NNE) 1,918 5.3 -17.9°
Enters shadow 20:22:39 - 34° (NE) 2,652 5.9 -18.3°
